Find Starlink 34515

NORAD ID: 64712 Int'l Des: 2025-142 Owner: SPXS Country: US Constellation: starlink operational
LEOCIRCULAR

当前视图

正在加载3D地球...

About Starlink 34515

Starlink 34515 (NORAD 64712) is a starlink constellation satellite (v2 mini) launched Jun 28, 2025 by SPXS of US. It operates in LEO, CIRCULAR orbit with a mass of 575.00 kg.

即将过境

Passes for default location (London). Set your location on the main map for personalized predictions.

高度历史

Loading altitude history...

两行轨道根数

1 64712U 25142S 26238.25545826 .00003058 00000-0 26390-3 0 9991
2 64712 69.9990 246.7515 0003744 267.6314 92.4417 14.98337838 64866
Epoch: Aug 26, 2026 • Age: 7 hours

当前状态

高度 578.8 km
远地点 / 近地点 N/A
速度 7.57 km/s
星下点 39.87°N, 123.63°W
发射日期 Jun 28, 2025
运行时间 1.1 years
类型 internet

技术详情

分类 Payload
质量 575.00 kg
干质量 530.00 kg
总质量 575.00 kg
长度 0.30 m
直径 4.10 m
跨度 29.00 m
形状 Box + pan
制造商 SPXS
平台类型 Starlink V2MO
阶段状态 In Orbit
所有者/国家 SPXS/US

Most Searched